Hourly Data Report for July 27, 2021

KUGLUKTUK A
NUNAVUT
Current Station Operator: NAVCAN

67°49'00.000" N
115°08'38.000" W
22.60 m
2300903
71938
YCO

Download Data

Hourly Data (July 2021)
Hourly Data Report for July 27, 2021
TIME
LST
Temp Definition
°C
Dew Point Definition
°C
Rel Hum Definition
%
Precip. Amount Definition
mm

Wind Dir Definition
10's deg

Wind Spd Definition
km/h
Visibility Definition
km
Stn Press Definition
kPa
Hmdx Definition


Wind Chill Definition


Weather Definition


00:00 5.8 2.7 80   26 18 24.1 100.61     LegendNANA
01:00 5.6 2.9 83   26 16 24.1 100.64     LegendNANA
02:00 5.6 3.5 86   26 13 24.1 100.66     Cloudy
03:00 5.3 3.7 89   27 13 24.1 100.67     LegendNANA
04:00 6.1 3.6 84   29 14 24.1 100.71     LegendNANA
05:00 6.5 3.2 79   25 9 24.1 100.73     Cloudy
06:00 6.6 3.4 80   29 13 24.1 100.73     LegendNANA
07:00 6.8 4.0 83   26 10 24.1 100.72     LegendNANA
08:00 7.2 3.7 78   26 10 24.1 100.73     Cloudy
09:00 7.7 3.7 76   26 10 24.1 100.73     LegendNANA
10:00 8.0 3.6 74   27 8 24.1 100.73     LegendNANA
11:00 8.6 4.4 75   34 13 24.1 100.73     Cloudy
12:00 8.8 5.2 78   35 14 24.1 100.76     LegendNANA
13:00 7.4 4.5 82   35 18 24.1 100.80     Drizzle
14:00 7.8 4.5 80   35 12 24.1 100.84     Drizzle
15:00 8.9 4.5 74   36 5 24.1 100.87     LegendNANA
16:00 8.8 4.3 73   14 8 24.1 100.85     LegendNANA
17:00 9.3 4.7 73   12 5 24.1 100.84     Cloudy
18:00 9.8 4.5 69   15 5 24.1 100.83     LegendNANA
19:00 10.4 4.7 67   10 4 24.1 100.83     LegendNANA
20:00 9.6 4.7 71   11 9 24.1 100.83     Mostly Cloudy
21:00 8.7 4.5 75   8 9 24.1 100.84     LegendNANA
22:00 7.2 4.3 81   9 9 24.1 100.85     LegendNANA
23:00 6.8 3.8 81   12 8 24.1 100.86     Mainly Clear

Notes on Data Quality.

Legend

  • E = Estimated
  • M = Missing
  • NA = Not Available*
  • [empty] = Indicates an unobserved value
Date modified: